TimeEDT,TemperatureF,Dew PointF,Humidity,Sea Level PressureIn,VisibilityMPH,Wind Direction,Wind SpeedMPH,Gust SpeedMPH,PrecipitationIn,Events,Conditions,WindDirDegrees,DateUTC
12:53 AM,63.0,57.9,84,30.20,10.0,Calm,Calm,-,N/A,,Clear,0,2013-05-26 04:53:00
1:53 AM,60.1,55.9,86,30.19,10.0,Calm,Calm,-,N/A,,Clear,0,2013-05-26 05:53:00
2:53 AM,60.1,55.9,86,30.18,10.0,Calm,Calm,-,N/A,,Clear,0,2013-05-26 06:53:00
3:35 AM,59.0,55.4,88,30.14,10.0,Calm,Calm,-,N/A,,Partly Cloudy,0,2013-05-26 07:35:00
3:53 AM,59.0,55.0,87,30.17,-9999.0,North,-9999.0,-,N/A,,Unknown,0,2013-05-26 07:53:00
4:53 AM,59.0,55.9,90,30.17,10.0,North,-9999.0,-,N/A,,Clear,0,2013-05-26 08:53:00
5:53 AM,60.1,57.0,90,30.20,8.0,North,-9999.0,-,N/A,,Clear,0,2013-05-26 09:53:00
6:53 AM,61.0,59.0,93,30.21,7.0,NE,5.8,-,N/A,,Clear,40,2013-05-26 10:53:00
7:53 AM,64.0,60.1,87,30.23,10.0,NNE,5.8,-,N/A,,Clear,30,2013-05-26 11:53:00
8:53 AM,68.0,61.0,78,30.25,10.0,NNE,4.6,-,N/A,,Scattered Clouds,30,2013-05-26 12:53:00
9:53 AM,73.9,64.0,71,30.26,10.0,East,4.6,-,N/A,,Clear,90,2013-05-26 13:53:00
10:53 AM,81.0,68.0,65,30.27,10.0,South,9.2,-,N/A,,Partly Cloudy,180,2013-05-26 14:53:00
11:53 AM,82.9,66.9,58,30.26,10.0,Variable,4.6,-,N/A,,Scattered Clouds,0,2013-05-26 15:53:00
12:53 PM,84.9,62.1,46,30.25,10.0,South,8.1,16.1,N/A,,Scattered Clouds,170,2013-05-26 16:53:00
1:53 PM,86.0,62.1,44,30.23,10.0,SW,6.9,-,N/A,,Scattered Clouds,220,2013-05-26 17:53:00
2:53 PM,86.0,63.0,46,30.22,10.0,South,11.5,16.1,N/A,,Scattered Clouds,180,2013-05-26 18:53:00
3:53 PM,84.9,66.0,53,30.20,10.0,South,13.8,-,N/A,,Scattered Clouds,170,2013-05-26 19:53:00
4:53 PM,82.9,66.9,58,30.19,10.0,South,15.0,-,N/A,,Scattered Clouds,170,2013-05-26 20:53:00
5:53 PM,81.0,68.0,65,30.19,10.0,SSW,11.5,-,N/A,,Scattered Clouds,210,2013-05-26 21:53:00
6:53 PM,79.0,68.0,69,30.18,10.0,South,8.1,-,N/A,,Clear,190,2013-05-26 22:53:00
7:53 PM,78.1,66.9,68,30.18,10.0,South,8.1,15.0,N/A,,Clear,180,2013-05-26 23:53:00
8:53 PM,75.0,66.9,76,30.18,10.0,South,3.5,-,N/A,,Clear,180,2013-05-27 00:53:00
9:53 PM,73.0,66.9,81,30.19,10.0,Calm,Calm,-,N/A,,Clear,0,2013-05-27 01:53:00
10:53 PM,69.1,64.9,87,30.20,10.0,Calm,Calm,-,N/A,,Clear,0,2013-05-27 02:53:00
11:53 PM,68.0,64.9,90,30.20,10.0,Calm,Calm,-,N/A,,Clear,0,2013-05-27 03:53:00